Simultaneous Nadir Overpasses (SNOs) Predictions

Prediction of SNOs between METOP-A and TERRA Satellite Orbit:

Table of predicted SNOs for the next 14.0 days since TLE Epoch: 5/19/2018
Index Date (METOP-A) Time (METOP-A) Lat,Lon (METOP-A) SZA (METOP-A ) Date (TERRA) Time (TERRA) Lat,Lon (TERRA) SZA (TERRA ) Distance(km) Time Diff (sec)
1 05/20/2018 15:07:32 -81.41,-177.55 115.43 05/20/2018 15:08:45 -81.42,-177.63 115.40 1.31 73
2 05/20/2018 15:58:13 81.41, -10.37 64.55 05/20/2018 15:58:12 81.41, -10.19 64.57 3.08 1
3 05/20/2018 16:48:52 -81.42, 157.69 115.37 05/20/2018 16:47:38 -81.42, 157.70 115.41 0.49 74
4 05/23/2018 10:41:50 -81.41,-111.29 116.01 05/23/2018 10:43:02 -81.41,-111.35 115.98 0.98 72
5 05/23/2018 11:32:30 81.41, 56.29 64.02 05/23/2018 11:32:28 81.42, 56.45 64.04 2.83 2
6 05/23/2018 12:22:52 -81.36,-128.92 115.09 05/23/2018 12:21:38 -81.67,-129.22 115.01 34.66 74
7 05/26/2018 06:16:06 -81.41, -44.65 116.50 05/26/2018 06:17:17 -81.42, -44.77 116.48 2.11 71
8 05/26/2018 07:06:46 81.41, 122.92 63.53 05/26/2018 07:06:43 81.42, 123.00 63.54 1.54 3
9 05/29/2018 01:50:24 -81.41, 21.58 116.99 05/29/2018 01:51:33 -81.42, 21.70 116.94 2.07 69
10 05/29/2018 02:41:04 81.41,-170.86 63.04 05/29/2018 02:41:00 81.40,-170.95 63.02 1.89 4
11 05/31/2018 21:24:41 -81.41, 88.18 117.39 05/31/2018 21:25:49 -81.42, 88.07 117.37 1.91 68




NCC Satellite Simultaneous Nadir Overpasses (SNOs) Prediction Service
